When you browse on this site, cookies collect data to enhance your experience and personalize the content and advertising you see.
Visit our Privacy Policy to learn more. By continuing to use the site, you agree to this use of cookies and data.
  • In Hungary
  • List of Countries
  • For 7 days
  • Water Temperature
  • Satellite Maps
  • Weather Map
  • News
  • Weather Widgets
  • user-avatar
    Login

    Hourly Weather Abovyan

    Today, 18 December, Tuesday

    Time Temperature Precipitation Wind Pressure Humidity
    00:00 +4°C° 0.5 mm 1 mps 671 mmHg 81%
    01:00 +4°C° 0.3 mm 1 mps 671 mmHg 81%
    02:00 +4°C° 0.3 mm 1 mps 671 mmHg 82%
    03:00 +4°C° 0 mm 1 mps 671 mmHg 82%
    04:00 +4°C° 0.2 mm 1 mps 671 mmHg 82%
    05:00 +3°C° 0.2 mm 1 mps 671 mmHg 83%
    06:00 +3°C° 0.2 mm 1 mps 671 mmHg 84%
    07:00 +4°C° 0.2 mm 1 mps 671 mmHg 82%
    08:00 +4°C° 0.2 mm 1 mps 671 mmHg 81%
    09:00 +5°C° 0 mm 1 mps 672 mmHg 79%
    10:00 +6°C° 0.2 mm 1 mps 672 mmHg 77%
    11:00 +7°C° 0.2 mm 1 mps 672 mmHg 75%
    12:00 +6°C° 0.2 mm 2 mps 672 mmHg 73%
    13:00 +6°C° 0.2 mm 2 mps 672 mmHg 73%
    14:00 +6°C° 0.2 mm 2 mps 672 mmHg 72%
    15:00 +6°C° 0 mm 2 mps 672 mmHg 72%
    16:00 +5°C° 0.1 mm 2 mps 672 mmHg 74%
    17:00 +6°C° 0.1 mm 1 mps 672 mmHg 76%
    18:00 +5°C° 0.1 mm 1 mps 673 mmHg 77%
    19:00 +4°C° 0.1 mm 1 mps 673 mmHg 77%
    20:00 +4°C° 0.1 mm 1 mps 673 mmHg 77%
    21:00 +4°C° 0.1 mm 1 mps 673 mmHg 77%
    22:00 +4°C° 0.1 mm 1 mps 674 mmHg 78%
    23:00 +3°C° 0.1 mm 1 mps 674 mmHg 78%

    Tomorrow, 19 December, Wednesday

    Time Temperature Precipitation Wind Pressure Humidity
    00:00 +3°C° 0.1 mm 1 mps 674 mmHg 78%
    01:00 +3°C° 0 mm 1 mps 674 mmHg 79%
    02:00 +3°C° 0 mm 1 mps 674 mmHg 79%
    03:00 +3°C° 0 mm 1 mps 674 mmHg 79%
    04:00 +3°C° 0 mm 1 mps 674 mmHg 79%
    05:00 +1°C° 0 mm 2 mps 674 mmHg 80%
    06:00 +1°C° 0 mm 2 mps 674 mmHg 80%
    07:00 +2°C° 0 mm 2 mps 674 mmHg 78%
    08:00 +3°C° 0 mm 2 mps 675 mmHg 77%
    09:00 +3°C° 0 mm 2 mps 675 mmHg 76%
    10:00 +4°C° 0 mm 2 mps 675 mmHg 74%
    11:00 +5°C° 0 mm 2 mps 674 mmHg 72%
    12:00 +5°C° 0 mm 3 mps 674 mmHg 70%
    13:00 +5°C° 0 mm 3 mps 674 mmHg 69%
    14:00 +6°C° 0 mm 2 mps 674 mmHg 69%
    15:00 +6°C° 0 mm 2 mps 673 mmHg 69%
    16:00 +5°C° 0 mm 2 mps 673 mmHg 71%
    17:00 +4°C° 0 mm 2 mps 674 mmHg 73%
    18:00 +3°C° 0 mm 2 mps 674 mmHg 75%
    19:00 +3°C° 0.1 mm 2 mps 674 mmHg 75%
    20:00 +3°C° 0.1 mm 2 mps 674 mmHg 75%
    21:00 +4°C° 0.1 mm 1 mps 674 mmHg 75%
    22:00 +4°C° 0 mm 1 mps 674 mmHg 75%
    23:00 +4°C° 0 mm 1 mps 673 mmHg 75%

    Day after tomorrow, 20 December, Thursday

    Time Temperature Precipitation Wind Pressure Humidity
    00:00 +4°C° 0 mm 1 mps 673 mmHg 76%
    01:00 +3°C° 0 mm 1 mps 673 mmHg 76%
    02:00 +3°C° 0 mm 1 mps 673 mmHg 77%
    03:00 +3°C° 0 mm 1 mps 673 mmHg 78%
    04:00 +3°C° 0 mm 1 mps 673 mmHg 78%
    05:00 +3°C° 0 mm 1 mps 673 mmHg 79%
    06:00 +3°C° 0 mm 1 mps 673 mmHg 79%
    07:00 +3°C° 0 mm 1 mps 673 mmHg 78%
    08:00 +4°C° 0 mm 1 mps 673 mmHg 76%
    09:00 +5°C° 0 mm 1 mps 673 mmHg 74%
    10:00 +5°C° 0 mm 1 mps 673 mmHg 73%
    11:00 +6°C° 0 mm 1 mps 672 mmHg 72%
    12:00 +7°C° 0 mm 1 mps 672 mmHg 71%
    13:00 +7°C° 0.1 mm 1 mps 672 mmHg 71%
    14:00 +7°C° 0.1 mm 1 mps 671 mmHg 71%
    15:00 +6°C° 0.1 mm 0 mps 671 mmHg 71%
    16:00 +5°C° 0 mm 0 mps 671 mmHg 74%
    17:00 +5°C° 0 mm 1 mps 671 mmHg 76%
    18:00 +4°C° 0 mm 1 mps 671 mmHg 78%
    19:00 +4°C° 0.1 mm 1 mps 671 mmHg 78%
    20:00 +4°C° 0.1 mm 1 mps 672 mmHg 79%
    21:00 +4°C° 0.1 mm 1 mps 672 mmHg 79%
    22:00 +3°C° 0.1 mm 1 mps 672 mmHg 79%
    23:00 +3°C° 0.1 mm 1 mps 672 mmHg 79%

    21 December, Friday

    Time Temperature Precipitation Wind Pressure Humidity
    00:00 +3°C° 0.1 mm 1 mps 672 mmHg 79%
    01:00 +3°C° 0.1 mm 1 mps 672 mmHg 79%
    02:00 +3°C° 0.1 mm 1 mps 672 mmHg 79%
    03:00 +3°C° 0.1 mm 1 mps 672 mmHg 79%
    04:00 +3°C° 0.2 mm 1 mps 672 mmHg 80%
    05:00 +3°C° 0.2 mm 1 mps 673 mmHg 80%
    06:00 +3°C° 0.2 mm 1 mps 673 mmHg 81%
    07:00 +3°C° 0.3 mm 1 mps 673 mmHg 79%
    08:00 +4°C° 0.3 mm 1 mps 673 mmHg 78%
    09:00 +5°C° 0.3 mm 1 mps 674 mmHg 76%
    10:00 +5°C° 0.2 mm 1 mps 674 mmHg 74%
    11:00 +6°C° 0.2 mm 1 mps 673 mmHg 73%
    12:00 +7°C° 0.2 mm 1 mps 673 mmHg 72%
    13:00 +7°C° 0.2 mm 1 mps 673 mmHg 71%
    14:00 +7°C° 0.2 mm 1 mps 673 mmHg 71%
    15:00 +7°C° 0.2 mm 1 mps 673 mmHg 71%
    16:00 +6°C° 0.1 mm 1 mps 673 mmHg 73%
    17:00 +5°C° 0.1 mm 1 mps 673 mmHg 76%
    18:00 +4°C° 0.1 mm 1 mps 673 mmHg 79%
    19:00 +4°C° 0.1 mm 1 mps 673 mmHg 79%
    20:00 +4°C° 0.1 mm 1 mps 673 mmHg 79%
    21:00 +3°C° 0.1 mm 1 mps 674 mmHg 80%
    22:00 +2°C° 0.1 mm 0 mps 673 mmHg 80%
    23:00 +2°C° 0.1 mm 0 mps 673 mmHg 81%

    22 December, Saturday

    Time Temperature Precipitation Wind Pressure Humidity
    00:00 +1°C° 0.1 mm 0 mps 673 mmHg 81%
    01:00 +1°C° 0 mm 0 mps 673 mmHg 82%
    02:00 +1°C° 0 mm 0 mps 673 mmHg 82%
    03:00 0°C° 0 mm 0 mps 673 mmHg 82%
    04:00 +1°C° 0 mm 1 mps 672 mmHg 81%
    05:00 +1°C° 0 mm 1 mps 672 mmHg 80%
    06:00 +1°C° 0 mm 1 mps 672 mmHg 80%
    07:00 +1°C° 0 mm 1 mps 672 mmHg 77%
    08:00 +2°C° 0 mm 1 mps 673 mmHg 75%
    09:00 +3°C° 0 mm 1 mps 673 mmHg 73%
    10:00 +4°C° 0 mm 1 mps 672 mmHg 71%
    11:00 +5°C° 0 mm 1 mps 672 mmHg 69%
    12:00 +6°C° 0 mm 1 mps 672 mmHg 68%
    13:00 +6°C° 0 mm 1 mps 671 mmHg 67%
    14:00 +6°C° 0 mm 1 mps 671 mmHg 67%
    15:00 +6°C° 0 mm 1 mps 671 mmHg 67%
    16:00 +5°C° 0.1 mm 1 mps 671 mmHg 69%
    17:00 +4°C° 0.1 mm 1 mps 671 mmHg 71%
    18:00 +3°C° 0.1 mm 1 mps 671 mmHg 73%
    19:00 +3°C° 0.1 mm 1 mps 672 mmHg 73%
    20:00 +3°C° 0.1 mm 1 mps 672 mmHg 73%
    21:00 +3°C° 0.1 mm 1 mps 672 mmHg 73%
    22:00 +2°C° 0 mm 1 mps 672 mmHg 74%
    23:00 +2°C° 0 mm 1 mps 672 mmHg 74%

    23 December, Sunday

    Time Temperature Precipitation Wind Pressure Humidity
    00:00 +1°C° 0 mm 1 mps 672 mmHg 74%
    01:00 +1°C° 0 mm 1 mps 672 mmHg 75%
    02:00 0°C° 0 mm 1 mps 672 mmHg 75%
    03:00 0°C° 0 mm 1 mps 672 mmHg 75%
    04:00 0°C° 0 mm 1 mps 672 mmHg 75%
    05:00 -1°C° 0 mm 1 mps 672 mmHg 75%
    06:00 -1°C° 0 mm 1 mps 672 mmHg 75%
    07:00 0°C° 0 mm 1 mps 672 mmHg 73%
    08:00 +1°C° 0 mm 1 mps 673 mmHg 71%
    09:00 +1°C° 0 mm 1 mps 673 mmHg 69%
    10:00 +2°C° 0 mm 1 mps 673 mmHg 67%
    11:00 +3°C° 0 mm 1 mps 673 mmHg 65%
    12:00 +4°C° 0 mm 1 mps 673 mmHg 62%
    13:00 +5°C° 0 mm 1 mps 672 mmHg 62%
    14:00 +5°C° 0 mm 1 mps 672 mmHg 61%
    15:00 +5°C° 0 mm 1 mps 672 mmHg 60%
    16:00 +4°C° 0 mm 1 mps 672 mmHg 62%
    17:00 +2°C° 0 mm 1 mps 672 mmHg 63%
    18:00 -1°C° 0 mm 2 mps 672 mmHg 64%
    19:00 +1°C° 0 mm 1 mps 672 mmHg 64%
    20:00 +1°C° 0 mm 1 mps 672 mmHg 63%
    21:00 +1°C° 0 mm 1 mps 672 mmHg 63%
    22:00 +1°C° 0.1 mm 1 mps 672 mmHg 64%
    23:00 +1°C° 0.1 mm 1 mps 672 mmHg 65%
    Show more